SL-12 R/B(AUX MOTOR), 33473

Orbit data source: Space-Track

SL-12 R/B(AUX MOTOR), 33473 is space debris in HEO originally from a launch on Thu, 25 Dec 2008 UTC launched from the Tyuratam Missile And Space Complex (TTMTR). Debris objects in space refer to the collection of defunct objects orbiting the Earth. Examples of debris include non-operational satellites, rocket bodies, and fragments generated from explosions, collisions, or faulty payload assembly.

Loading next visibility...
SL-12 R/B(AUX MOTOR) details
Identifier
33473, 2008-067H
Orbit
HEO
Last TLE update1 day ago
Origin
Flag of CISKVR (CIS)
ManufacturerRKKE
MissionSpacecraft
Bus & MotorSOZ, Unknown motor
Mass56 kg wet, 56 kg dry
Launch date (UTC)
2008-12-25 (16 years ago)
Launch vehicleUnknown
Launch site
Tyuratam Missile And Space Complex (TTMTR)
Object type
Payload
Rocket body
Debris
Shape & HBRCyl, 1.1 m
Radar Cross Section0.660 m², Medium (>0.1 m² and < 1m²)

Expand to show TLE details & history

TLE from 1 day ago
0 SL-12 R/B(AUX MOTOR)
1 33473U 08067H   24360.31397651  .00000009  00000-0  65174-3 0  9996
2 33473  65.3319 325.5628 5625716 287.1006  20.8387  4.26204736133207
Epoch: 2024-12-25T07:32Z
Definitive object data (Epoch: 2024-12-25T07:32:07.57Z)
Latitude0.00004°
Longitude118.20715°
Altitude3,049.568 km
Speed7.731 km/s
True Right ascension21h 42m 11s
True Declination0° 00' 00"
Sunlit
Object was in daylight at TLE epoch
Visualization TLE readout
Latitude55.29391°
Longitude-103.71289°
Altitude18,414.163 km
Speed2.714 km/s
Apparent Right ascension05h 46m 17s
Apparent Declination45° 18' 03"
Sunlit
Object is in daylight
Visualization observer readout
Local Sidereal Time13:55:17
Azimuth322.882° NNW
Elevation9.684°
Doppler factor1
Orbital elements
Apogee altitude18,729.079 km
Perigee altitude650.411 km
Semi-major axis16,067.882 km
Eccentricity0.5625716
Inclination65.3319°
RAAN325.5628°
Arg. of periapsis287.1006°
True anomaly72.90788°
Mean anomaly20.8387°
Eccentric anomaly42.69626°
Mean motion1.06563 °/min
BSTAR0.00065174
Orbital period337.83 mins
Loading maneuver chart data...
Loading historical data...
Loading historical data...
Loading historical data...
Loading historical data...
Loading historical data...
Loading historical data...
Loading historical data...

SL-12 R/B(AUX MOTOR) Visibility forecast

Observer location: undefined°, undefined

Span
Click to sort rows by Start time (UTC) header in descending order
Start Az.
Max El. time (UTC)
Max El. Az.
Max El.
End time (UTC)
End Az.
207 mins2024-12-26 22:58:25.973Z195.012° SSW2024-12-26 23:23:25.973Z111.2° ESE44.794°2024-12-27 02:25:25.973Z52.712° ENE
251 mins2024-12-27 05:08:25.973Z301.639° NW2024-12-27 08:12:25.973Z75.772° E44.745°2024-12-27 09:19:25.973Z157.908° S
139 mins2024-12-27 11:55:25.973Z335.508° NNW2024-12-27 13:07:25.973Z315.517° NNW19.602°2024-12-27 14:14:25.973Z286.548° WNW
|